User: anonymous   Login
Location: Bavegemberg
(50.9500°N, 3.8833°E)
Time: 13:10:30
(UTC+00:00)
Language:

Cosmos 1707 - Orbit

View from above orbital plane
View from above orbital plane
View from above satellite
View from above satellite

Ground track
Ground track

The orbit data is extracted from the following two-line orbital elements,

1 16326U 85113A   24201.02040107  .00020006  00000-0  69737-3 0  9992
2 16326  82.5022 172.6056 0005313 345.0917  15.0165 15.29508872109653
Epoch (UTC): 19 July 2024 00:29:22
Eccentricity: 0.0005313
inclination: 82.5022°
perigee height: 473 km
apogee height: 481 km
right ascension of ascending node: 172.6056°
argument of perigee: 345.0917°
revolutions per day: 15.29508872
mean anomaly at epoch: 15.0165°
orbit number at epoch: 10965

The dashed part of the orbit path shows where the satellite is in the earth's shadow,  

DLR